FW1775 Weather Reports


time (UTC)temp
F
wind
direction
speed
knots
gust
knots
rain 1hr
in
rain 24hr
in
rain mn
in
humidity
%
barometer
mb
20260506121507 44 223 1.7 2.6 0.00 0.00 0.00 97 974.8
20260506121007 44 183 0.0 0.9 0.00 0.00 0.00 98 974.9
20260506120507 44 207 0.9 0.9 0.00 0.00 0.00 98 974.9
20260506120008 44 189 0.0 0.9 0.00 0.00 0.00 98 974.6
20260506115509 43 234 0.0 0.9 0.00 0.00 0.00 99 974.6
20260506115007 43 148 0.0 0.9 0.00 0.00 0.00 99 974.7
20260506114507 42 191 0.0 0.0 0.00 0.00 0.00 99 974.8
20260506114007 42 180 0.0 0.0 0.00 0.00 0.00 99 974.8
20260506113507 42 222 0.0 0.0 0.00 0.00 0.00 99 974.6
20260506113007 42 225 0.0 0.0 0.00 0.00 0.00 99 974.6
20260506112507 42 211 0.0 0.0 0.00 0.00 0.00 99 974.5
20260506112007 42 208 0.0 0.0 0.00 0.00 0.00 99 974.5
20260506111507 42 225 0.0 0.0 0.00 0.00 0.00 99 974.5
20260506111007 41 202 0.0 0.0 0.00 0.00 0.00 99 974.2
20260506110506 41 202 0.0 0.0 0.00 0.00 0.00 99 974.2
20260506110007 41 167 0.0 0.0 0.00 0.00 0.00 99 974.3
20260506104509 41 180 0.0 0.0 0.00 0.00 0.00 99 974.0
20260506104009 41 180 0.0 0.0 0.00 0.00 0.00 99 974.0
20260506103009 41 180 0.0 0.0 0.00 0.00 0.00 99 974.1
20260506102509 41 161 0.0 0.0 0.00 0.00 0.00 99 974.1
20260506102008 41 180 0.0 0.0 0.00 0.00 0.00 99 974.1
20260506101508 41 202 0.0 0.0 0.00 0.00 0.00 99 974.1
20260506101009 41 180 0.0 0.0 0.00 0.00 0.00 99 974.0
20260506100509 41 180 0.0 0.0 0.00 0.00 0.00 99 974.0
20260506095508 41 180 0.0 0.0 0.00 0.00 0.00 99 974.4
20260506094509 41 180 0.0 0.0 0.00 0.00 0.00 99 974.3
20260506094008 41 180 0.0 0.0 0.00 0.00 0.00 99 974.3
20260506093508 41 180 0.0 0.0 0.00 0.00 0.00 99 974.4
20260506093009 41 158 0.0 0.0 0.00 0.00 0.00 99 974.4
20260506092508 41 180 0.0 0.0 0.00 0.00 0.00 98 974.4
20260506092009 41 180 0.0 0.0 0.00 0.00 0.00 98 974.4
20260506091508 41 180 0.0 0.0 0.00 0.00 0.00 99 974.4
20260506091009 41 180 0.0 0.0 0.00 0.00 0.00 99 974.7
20260506090009 41 180 0.0 0.0 0.00 0.00 0.00 99 974.7
20260506085509 41 180 0.0 0.0 0.00 0.00 0.00 99 974.7
20260506085008 41 126 0.0 0.0 0.00 0.00 0.00 99 974.8
20260506084508 41 202 0.0 0.0 0.00 0.00 0.00 99 974.8
20260506084009 41 149 0.0 0.0 0.00 0.00 0.00 98 974.8
20260506082508 41 180 0.0 0.0 0.00 0.00 0.00 99 975.3
20260506082009 41 158 0.0 0.0 0.00 0.00 0.00 99 975.3
20260506081509 41 202 0.0 0.0 0.00 0.00 0.00 99 975.3
20260506073509 40 180 0.0 0.0 0.00 0.00 0.00 97 974.3
20260506073008 40 202 0.0 0.0 0.00 0.00 0.00 97 974.3
20260506072508 40 202 0.0 0.0 0.00 0.00 0.00 97 974.5
20260506071508 40 172 0.0 0.0 0.00 0.00 0.00 97 974.5
20260506071009 40 158 0.0 0.0 0.00 0.00 0.00 97 974.7
20260506070509 40 140 0.0 0.0 0.00 0.00 0.00 95 974.7
20260506062509 40 180 0.0 0.0 0.00 0.00 0.00 94 974.8
20260506062008 40 180 0.0 0.0 0.00 0.00 0.00 94 974.8
20260506061508 40 180 0.0 0.0 0.00 0.00 0.00 94 974.8
20260506061009 40 180 0.0 0.0 0.00 0.00 0.00 94 975.1
20260506060508 40 180 0.0 0.0 0.00 0.00 0.00 93 975.1
20260506050508 40 180 0.0 0.0 0.00 0.00 0.00 92 975.4
20260506045008 40 180 0.0 0.0 0.00 0.00 0.00 92 975.5
20260506044508 40 180 0.0 0.0 0.00 0.00 0.00 92 975.5
20260506044008 40 180 0.0 0.0 0.00 0.00 0.00 93 975.5
20260506043508 41 180 0.0 0.0 0.00 0.00 0.00 93 975.6
20260506043008 41 180 0.0 0.0 0.00 0.00 0.00 92 975.6
20260506042508 41 180 0.0 0.0 0.00 0.00 0.00 92 975.3
20260506041508 41 180 0.0 0.0 0.00 0.00 0.00 92 975.3
20260506041008 41 180 0.0 0.0 0.00 0.00 0.00 91 975.3
20260506040508 41 163 0.0 0.0 0.00 0.00 0.00 91 975.3
20260506040008 41 180 0.0 0.0 0.00 0.00 0.00 92 975.2
20260506035008 41 180 0.0 0.0 0.00 0.00 0.00 92 975.2
20260506034509 41 180 0.0 0.0 0.00 0.00 0.00 91 975.2
20260506034009 40 158 0.0 0.0 0.00 0.00 0.00 91 975.2
20260506033509 40 180 0.0 0.0 0.00 0.00 0.00 91 975.0
20260506033009 40 180 0.0 0.0 0.00 0.00 0.00 89 975.0
20260506032008 40 180 0.0 0.0 0.00 0.00 0.00 89 975.1
20260506031009 40 180 0.0 0.0 0.00 0.00 0.00 89 975.2
20260506030508 40 180 0.0 0.0 0.00 0.00 0.00 90 975.2
20260506030008 40 180 0.0 0.0 0.00 0.00 0.00 89 975.4
20260506025508 40 180 0.0 0.0 0.00 0.00 0.00 89 975.4
20260506025008 40 180 0.0 0.0 0.00 0.00 0.00 88 975.5
20260506024008 40 180 0.0 0.0 0.00 0.00 0.00 88 975.5
20260506023508 40 180 0.0 0.0 0.00 0.00 0.00 86 975.5
20260506023009 40 180 0.0 0.0 0.00 0.00 0.00 86 975.5
20260506022508 40 180 0.0 0.0 0.00 0.00 0.00 86 975.3
20260506022008 40 180 0.0 0.0 0.00 0.00 0.00 87 975.3
20260506021508 40 167 0.0 0.0 0.00 0.00 0.00 87 975.3
20260506020508 41 180 0.0 0.0 0.00 0.00 0.00 87 975.1
20260506015508 41 180 0.0 0.0 0.00 0.00 0.00 86 975.2
20260506015008 41 180 0.0 0.0 0.00 0.00 0.00 87 975.0
20260506014508 41 180 0.0 0.0 0.00 0.00 0.00 86 974.9
20260506013508 41 180 0.0 0.0 0.00 0.00 0.00 86 974.7
20260506012508 42 180 0.0 0.0 0.00 0.00 0.00 83 974.7
20260506012008 42 180 0.0 0.0 0.00 0.00 0.00 83 974.7
20260506011508 42 180 0.0 0.0 0.00 0.00 0.00 83 974.7
20260506011008 42 180 0.0 0.0 0.00 0.00 0.00 82 974.5
20260506010508 43 180 0.0 0.0 0.00 0.00 0.00 82 974.5
20260506010008 43 202 0.0 0.0 0.00 0.00 0.00 79 974.5
20260506005509 43 202 0.0 0.0 0.00 0.00 0.00 78 974.5
20260506005008 44 202 0.0 0.0 0.00 0.00 0.00 77 974.4
20260506004508 44 202 0.0 0.0 0.00 0.00 0.00 76 974.4
20260506004008 44 202 0.0 0.0 0.00 0.00 0.00 76 974.4
20260506003507 45 202 0.0 0.0 0.00 0.00 0.00 74 974.2
20260506003008 45 202 0.0 0.0 0.00 0.00 0.00 73 974.2
20260506002508 45 253 0.0 0.0 0.00 0.00 0.00 72 974.2
20260506001508 46 269 0.9 1.7 0.00 0.00 0.00 71 974.2
20260506000508 46 270 0.0 1.7 0.00 0.00 0.00 70 974.2
20260506000008 47 280 0.0 1.7 0.00 0.00 0.00 69 974.3
20260505234008 48 328 1.7 1.7 0.00 0.00 0.00 67 974.3
20260505233508 48 286 1.7 2.6 0.00 0.00 0.00 66 974.3
20260505232508 49 271 1.7 1.7 0.00 0.00 0.00 66 974.1
20260505231508 49 301 0.9 2.6 0.00 0.00 0.00 65 974.1
20260505231008 49 328 1.7 2.6 0.00 0.00 0.00 66 974.2
20260505230504 49 301 1.7 2.6 0.00 0.00 0.00 65 974.2
20260505225510 50 348 1.7 2.6 0.00 0.00 0.00 63 974.3
20260505225008 50 310 1.7 4.3 0.00 0.00 0.00 64 974.2
20260505224508 50 305 1.7 4.3 0.00 0.00 0.00 63 974.2
20260505224008 51 328 2.6 4.3 0.00 0.00 0.00 62 974.2
20260505223508 50 283 1.7 4.3 0.00 0.00 0.00 63 974.4
20260505222508 50 312 1.7 6.1 0.00 0.00 0.00 64 974.0
20260505222008 51 288 2.6 6.1 0.00 0.00 0.00 61 974.0
20260505221508 51 314 3.5 6.1 0.00 0.00 0.00 61 974.0
20260505220508 51 297 2.6 5.2 0.00 0.00 0.00 60 974.1
20260505220008 52 199 1.7 2.6 0.00 0.00 0.00 60 973.9
20260505215508 51 320 1.7 2.6 0.00 0.00 0.00 61 973.9
20260505215008 50 302 1.7 4.3 0.00 0.00 0.00 63 974.0
20260505214507 50 303 2.6 4.3 0.00 0.00 0.00 62 974.0
20260505214008 50 332 2.6 4.3 0.00 0.00 0.00 62 974.0
20260505213008 51 296 1.7 2.6 0.00 0.00 0.00 63 973.9
20260505212508 50 291 2.6 2.6 0.00 0.00 0.00 63 973.9
20260505212008 50 13 1.7 4.3 0.00 0.00 0.00 64 973.9
20260505211007 50 317 1.7 2.6 0.00 0.00 0.00 66 974.0
20260505210508 50 281 1.7 4.3 0.00 0.00 0.00 65 974.0
20260505205508 50 303 1.7 2.6 0.00 0.00 0.00 66 973.9
20260505205008 50 315 2.6 4.3 0.00 0.00 0.00 65 973.8
20260505204008 50 303 2.6 4.3 0.00 0.00 0.00 66 973.8
20260505203008 50 233 1.7 5.2 0.00 0.00 0.00 66 973.4
20260505202507 50 317 1.7 2.6 0.00 0.00 0.00 65 973.3
20260505202007 50 303 1.7 5.2 0.00 0.00 0.00 66 973.3
20260505201508 50 306 0.9 5.2 0.00 0.00 0.00 67 973.3
20260505201008 50 310 2.6 5.2 0.00 0.00 0.00 66 973.2
20260505200008 49 269 1.7 2.6 0.00 0.00 0.00 68 973.2
20260505195508 49 341 1.7 2.6 0.00 0.00 0.00 68 973.2
20260505195007 49 259 1.7 2.6 0.00 0.00 0.00 67 973.2
20260505194508 49 303 2.6 2.6 0.00 0.00 0.00 66 973.2
20260505194008 49 324 1.7 4.3 0.00 0.00 0.00 68 973.2
20260505193508 49 233 1.7 4.3 0.00 0.00 0.00 68 973.3
20260505193009 49 356 1.7 4.3 0.00 0.00 0.00 67 973.3
20260505192507 49 293 0.0 5.2 0.00 0.00 0.00 67 972.8
20260505192008 49 305 2.6 5.2 0.00 0.00 0.00 67 972.8
20260505191008 49 297 2.6 4.3 0.00 0.00 0.00 67 972.7
20260505190508 49 304 2.6 4.3 0.00 0.00 0.00 69 972.7
20260505190007 49 325 2.6 4.3 0.00 0.00 0.00 68 972.7
20260505185507 50 199 2.6 4.3 0.00 0.00 0.00 67 972.7
20260505185007 49 302 1.7 4.3 0.00 0.00 0.00 69 972.4
20260505184507 49 306 2.6 4.3 0.00 0.00 0.00 68 972.4
20260505183008 50 301 1.7 2.6 0.00 0.00 0.00 66 972.1
20260505182008 50 324 2.6 4.3 0.00 0.00 0.00 63 972.0
20260505181507 49 324 2.6 4.3 0.00 0.00 0.00 64 972.0
20260505181007 49 330 2.6 5.2 0.00 0.00 0.00 63 972.1
20260505180507 49 278 2.6 5.2 0.00 0.00 0.00 63 972.1
20260505180007 49 320 2.6 5.2 0.00 0.00 0.00 64 972.2
20260505175507 49 344 2.6 5.2 0.00 0.00 0.00 65 972.2
20260505174509 49 289 2.6 6.1 0.00 0.00 0.00 64 971.9
20260505174007 49 306 1.7 6.1 0.00 0.00 0.00 65 971.9
20260505173508 49 274 2.6 6.1 0.00 0.00 0.00 63 971.5
20260505173008 49 258 2.6 5.2 0.00 0.00 0.00 64 971.5
20260505172508 50 287 1.7 4.3 0.00 0.00 0.00 64 971.4
20260505172008 49 292 2.6 4.3 0.00 0.00 0.00 63 971.4
20260505171507 50 296 2.6 4.3 0.00 0.00 0.00 63 971.4
20260505171008 50 282 1.7 5.2 0.00 0.00 0.00 63 971.3
20260505170507 51 301 1.7 5.2 0.00 0.00 0.00 63 971.3
20260505165507 51 270 1.7 4.3 0.00 0.00 0.00 67 971.2
20260505165008 51 326 2.6 4.3 0.00 0.00 0.00 68 971.2
20260505164507 49 315 2.6 4.3 0.00 0.00 0.00 69 971.2
20260505164007 49 289 2.6 4.3 0.00 0.00 0.00 69 971.2
20260505163507 49 318 3.5 4.3 0.00 0.00 0.00 67 971.2
20260505163009 50 352 2.6 5.2 0.00 0.00 0.00 69 971.2
20260505162508 49 284 2.6 5.2 0.00 0.00 0.00 69 971.0
20260505162007 49 286 1.7 4.3 0.00 0.00 0.00 71 971.0
20260505161507 49 302 2.6 5.2 0.00 0.00 0.00 70 971.0
20260505161007 50 327 2.6 5.2 0.00 0.00 0.00 70 970.9
20260505160507 49 328 2.6 5.2 0.00 0.00 0.00 71 970.9
20260505153007 51 289 2.6 5.2 0.00 0.00 0.00 73 969.9
20260505152508 51 275 2.6 5.2 0.00 0.00 0.00 73 969.4
20260505152007 52 315 2.6 5.2 0.00 0.00 0.00 72 969.4
20260505151507 51 296 2.6 4.3 0.00 0.00 0.00 72 969.4
20260505150507 52 295 3.5 6.1 0.00 0.00 0.00 73 969.2
20260505140507 49 327 2.6 4.3 0.00 0.00 0.00 82 968.2
20260505125007 49 301 2.6 4.3 0.00 0.00 0.00 87 967.1
20260505124508 49 306 2.6 4.3 0.00 0.00 0.00 87 967.0
20260505122507 51 300 2.6 4.3 0.00 0.00 0.00 86 966.3
20260505122007 51 291 0.9 4.3 0.00 0.00 0.00 87 966.3